OBJECT B, 61239

Orbit data source: Space-Track

You're viewing an Uncataloged Satellite

Recently launched and/or uncataloged satellites may have evolving metadata. Metadata may include but not limited to: Owner, Maufacturer, Bus, Motor, and Mission.

OBJECT B, 61239 is a Chinese satellite in SSO that was launched on Tue, 24 Sep 2024 UTC via a LIJIAN-1 launch vehicle from the Jiuquan Satellite Launch Center, China (JSC). Unknown objects in Earth's orbit typically refer to objects detected orbiting the Earth but have not yet been identified or cataloged. These objects could be anything from previously untracked satellites, spent rocket stages, debris from satellite collisions, or even natural meteoroids temporarily captured by Earth's gravity.

Loading next visibility...
Identifier
61239, 2024-174B
Orbit
SSO
Country
Flag of CNCN / PRC
Related business
None
Manufacturer
ZHWK/HITSAT
Mission
Operational Commercial Radar Imaging
Bus & Motor
ZK1, Unknown motor
Mass
~250 kg wet, ~250 kg dry
Launch date (UTC)
2024-09-24 (1 year ago)
Launch vehicle
LIJIAN-1
Launch site
Jiuquan Satellite Launch Center, China (JSC)
Object type
Unknown
Shape & HBR
Box + 3 Pan, 3.0 m
Radar Cross Section
3.533 m², Medium (>0.1 m² and < 1m²)

Expand to show TLE details & history
Last TLE update: 5 hours ago

TLE from 5 hours ago
0 OBJECT B
1 61239U 24174B   25262.11855215  .00001548  00000-0  10521-3 0  9994
2 61239  97.4511 268.4238 0023452 136.4647 223.8437 15.07581817 54517
Epoch: 2025-09-19T02:50Z
TLE epoch observation values (Epoch: 2025-09-19T02:50:42.905Z)
Latitude
-0.00011°
Longitude
-132.52534°
Altitude
558.393 km
Speed
7.576 km/s
True Right ascension
17h 53m 41s
True Declination
0° 00' 00"
Sunlit
Object was in daylight at epoch
Visualization orbit readout
Latitude
Unknown
Longitude
Unknown
Altitude
Unknown
Speed
Unknown
Apparent Right ascension
Unknown
Apparent Declination
Unknown
Sunlit
N/A
Visualization observer readout
Local Sidereal Time
00:35:01
Azimuth
Unknown
Elevation
Unknown
Doppler factor
Unknown
Orbital elements
Apogee altitude
556.802 km
Perigee altitude
524.35 km
Semi-major axis
6,918.713 km
Eccentricity
0.00235
Inclination
97.4511°
RAAN
268.4238°
Arg. of periapsis
136.4647°
True anomaly
223.65794°
Mean anomaly
223.8437°
Eccentric anomaly
223.75078°
Mean motion
3.77142 °/min
Orbital period
95.45 mins
BSTAR
0.00010521
Loading maneuver chart data...
Computing Atmospheric mass density...
Loading historical data...
Loading historical data...
Loading historical data...
Loading historical data...
Loading historical data...
Loading historical data...
Loading historical data...

Documentation

Showing up to 5 results
|